Theta_e
341 339 330 329 326 326 321 320 303 308 305 300 298 300 298 307 306 303 303 304 302 307 308 308 309 311 307 308 308 309 312 310 311 305 309 325 340 341 344 344 344 345 346 347 348 348 348 345 346 347 348 348 348 348 349 348 347 347 347 347 347 347 347 347 346 346 346 345 345 345 346 346 343 340 340 340 340 338 338 338 339 340 339 339 339 341 344 347 346 346 346 346 345 343 342 342 342
335 327 329 330 325 321 314 315 306 302 303 298 300 302 301 304 304 302 302 304 308 307 309 308 310 313 312 312 310 310 315 315 316 318 329 336 340 340 342 344 344 343 344 347 348 348 347 346 343 348 348 348 348 349 348 347 347 347 347 347 347 346 347 347 346 346 346 345 345 345 345 342 341 340 340 339 339 339 338 338 338 339 339 339 339 341 345 346 346 345 345 344 342 341 340 340 341
328 325 323 326 323 320 316 313 302 300 299 296 297 302 305 301 302 304 305 309 309 309 309 309 311 312 310 310 308 306 313 319 322 326 329 336 332 336 341 344 345 345 346 345 347 348 349 346 341 347 347 348 348 348 348 348 348 347 347 346 346 346 346 346 346 346 345 344 345 345 344 344 342 340 340 339 339 339 339 338 338 338 339 339 341 344 345 344 343 343 342 342 342 342 340 340 340
330 329 323 323 316 316 310 308 304 301 298 298 298 302 303 303 303 306 309 309 309 310 310 307 307 314 310 307 310 310 315 317 325 329 327 331 333 338 341 342 346 345 348 348 346 348 347 343 342 347 347 347 348 348 348 348 347 347 347 346 345 345 346 346 346 346 346 345 345 345 343 341 340 340 340 339 339 338 338 338 338 337 338 339 340 340 340 340 340 340 339 341 341 341 341 340 340
329 328 324 323 317 310 310 307 303 301 297 298 298 302 303 305 305 307 308 309 309 309 309 308 310 313 314 312 312 309 318 322 326 330 330 337 341 341 342 345 345 344 345 347 347 348 347 342 343 347 346 347 348 348 348 347 347 346 346 346 346 345 345 345 345 346 345 345 345 345 343 341 339 339 339 339 339 337 337 337 337 337 339 340 340 342 342 343 343 342 342 343 342 342 341 340 338
326 325 328 321 313 314 309 302 301 300 301 303 299 302 304 306 305 308 308 308 308 308 308 308 308 310 307 309 317 315 319 314 325 330 333 335 340 342 343 346 344 343 344 347 349 349 349 341 345 347 347 347 347 348 348 347 346 346 346 345 345 345 345 345 345 345 345 345 345 344 343 341 339 338 339 339 338 338 337 337 337 337 338 339 341 341 342 341 341 341 341 341 341 341 340 338 336
324 322 318 317 315 316 305 302 301 301 301 305 302 303 305 305 307 307 307 307 308 307 309 308 309 308 306 314 314 321 326 326 326 330 335 337 340 341 343 344 344 343 344 347 348 347 350 341 347 348 347 346 347 347 347 347 347 346 345 345 344 345 345 345 345 345 345 345 345 344 343 341 339 337 338 338 337 337 337 337 337 337 338 338 338 339 339 340 340 340 340 340 340 340 338 337 336
324 319 316 309 309 307 304 302 302 303 302 305 305 304 305 306 307 306 306 305 304 304 306 308 308 308 307 314 310 321 326 328 333 336 337 337 339 341 344 343 342 342 344 347 349 348 345 340 347 347 347 347 347 347 347 347 346 346 346 345 345 345 345 345 345 345 345 345 344 344 343 340 337 337 337 338 337 337 337 337 336 338 338 338 338 338 338 339 339 339 339 339 339 339 337 336 336
321 316 319 312 305 306 302 301 302 303 303 304 304 306 309 307 307 307 304 307 305 306 306 307 309 304 307 308 314 319 323 329 334 335 336 338 339 340 342 343 342 342 344 347 348 349 349 338 345 347 347 347 347 347 347 347 346 346 346 345 345 345 345 345 345 345 345 344 344 344 342 339 336 336 338 338 337 337 336 336 336 336 337 338 338 338 337 338 337 337 336 337 337 338 336 336 335
316 315 309 309 309 302 301 301 301 303 303 305 305 304 306 306 306 308 306 305 305 306 308 310 310 304 307 306 310 317 321 329 332 334 336 338 340 340 341 343 344 344 344 345 347 347 348 343 338 343 346 347 346 347 347 347 347 347 345 345 345 345 345 345 345 345 344 344 344 343 342 339 335 336 337 337 337 336 336 335 335 335 337 337 335 335 334 334 334 335 335 336 336 336 335 334 334
310 312 316 306 303 300 300 301 301 302 303 305 305 306 307 307 306 305 306 305 307 305 309 309 305 305 306 307 314 325 328 328 329 331 336 337 340 339 340 343 345 345 344 347 348 346 347 348 341 338 343 345 346 347 347 347 347 347 346 346 346 345 345 346 345 345 344 343 344 343 343 339 335 334 336 337 337 336 336 335 335 334 334 334 334 333 333 333 333 332 335 335 334 333 334 333 333
310 308 311 303 302 301 302 301 301 303 304 304 303 305 308 307 307 304 304 303 305 305 306 307 306 308 304 306 312 320 324 325 329 335 336 339 339 340 342 343 345 344 346 347 347 348 347 349 348 341 333 337 342 345 346 346 347 347 347 347 346 346 345 345 345 344 344 343 343 343 341 337 335 334 335 336 336 335 335 335 335 335 334 334 334 333 333 333 332 331 332 332 332 333 332 332 331
312 313 306 302 303 302 303 300 302 302 303 302 304 305 308 306 304 305 304 305 305 304 305 309 311 308 304 305 315 320 319 324 333 335 337 338 339 341 344 342 343 344 345 347 347 347 348 346 347 346 341 329 333 338 341 343 345 346 347 347 346 346 346 345 345 344 344 343 343 342 339 336 335 334 335 335 335 335 335 334 333 332 333 333 333 333 333 332 331 330 330 331 332 331 331 331 330
314 314 309 303 305 302 301 302 302 300 301 304 306 306 307 305 306 306 306 303 304 304 308 311 309 310 306 308 310 313 318 327 333 334 336 338 340 341 342 342 344 343 345 346 346 347 348 347 347 347 346 345 347 339 335 339 341 344 345 344 345 345 345 345 344 344 343 343 341 340 338 336 335 333 334 334 334 334 334 332 330 330 330 331 331 331 331 331 330 330 329 330 330 330 330 330 329
313 314 308 307 303 302 303 299 301 300 301 304 304 305 305 307 306 306 305 303 304 308 309 310 312 306 303 305 306 311 320 330 333 334 335 337 339 340 341 343 343 345 343 344 345 344 344 345 346 348 346 346 345 347 346 344 335 340 342 342 343 343 343 343 344 341 340 340 337 335 334 332 332 332 333 331 332 332 332 331 329 328 328 328 328 329 331 331 330 329 328 329 329 329 329 328 327
318 311 308 303 300 300 303 301 302 301 301 305 304 306 305 306 306 305 306 305 306 310 308 306 310 307 307 307 314 325 329 331 333 333 334 335 338 339 339 340 340 342 344 344 345 344 345 344 345 345 346 347 347 346 346 347 334 333 337 339 340 341 341 340 338 336 335 333 332 330 329 331 328 329 324 328 328 329 329 327 330 329 328 328 328 329 331 330 330 329 328 328 327 326 326 325 324
315 317 303 301 299 301 303 301 302 298 304 305 304 305 303 303 306 306 306 308 305 306 306 309 308 310 307 308 311 329 330 331 330 332 332 332 335 334 336 337 338 339 340 341 342 343 344 344 345 346 345 345 344 346 345 345 343 331 333 332 334 337 336 335 333 327 326 326 328 327 328 331 330 329 327 327 324 328 322 324 330 329 328 327 327 328 329 329 328 327 326 325 324 322 320 319 320
315 304 302 300 302 301 305 302 303 306 303 304 303 304 304 302 304 305 306 305 305 307 306 308 309 308 310 309 311 326 329 328 329 329 329 329 332 331 331 332 334 334 336 338 340 342 342 343 344 345 345 344 344 344 347 345 345 340 344 345 344 336 330 328 336 339 334 340 327 333 337 333 333 333 329 328 326 326 324 321 324 326 325 325 324 326 327 326 325 325 324 323 322 321 320 319 318
308 305 303 301 304 305 307 306 306 304 304 305 305 305 304 304 305 306 303 304 304 304 305 307 306 308 309 308 309 321 327 327 328 328 328 328 328 329 330 331 332 334 334 336 337 339 341 342 344 342 345 344 346 345 346 346 343 344 345 344 344 335 337 340 342 339 341 341 339 339 336 335 335 333 331 329 327 321 324 320 322 324 324 324 323 323 324 324 323 322 321 319 319 320 318 319 318
308 307 301 301 308 306 307 306 305 305 305 305 304 305 305 306 306 308 303 304 305 303 304 305 306 306 308 308 309 318 326 326 327 328 328 328 329 329 329 329 330 332 334 334 335 337 339 340 343 343 342 343 344 343 345 345 345 343 344 344 342 342 340 342 341 341 340 340 339 338 338 337 335 332 323 322 322 324 323 319 320 321 321 320 319 320 320 320 319 318 317 318 318 315 314 314 315
308 303 302 304 305 304 305 306 305 305 305 305 305 305 303 305 306 305 304 302 304 305 307 307 306 307 309 310 310 317 324 325 326 327 327 328 329 330 330 330 331 332 334 336 335 335 337 338 339 341 342 342 342 342 342 343 344 345 344 343 344 342 341 340 340 341 340 341 339 338 338 337 336 332 328 326 325 322 321 320 319 318 317 317 315 314 313 314 313 315 315 316 315 316 315 314 314
307 303 304 305 305 303 304 305 304 304 303 305 305 302 303 307 305 305 305 301 302 305 308 309 309 310 310 311 311 316 321 323 324 325 326 327 328 328 330 332 333 334 333 334 335 335 335 337 338 340 340 340 340 341 341 342 341 342 342 342 342 342 342 340 340 341 340 341 340 338 339 337 334 331 329 330 328 324 320 318 318 317 317 316 315 313 313 316 318 318 317 316 314 313 312 311 311
301 304 304 304 305 305 304 304 303 303 305 304 303 305 306 304 304 306 305 304 306 308 309 310 310 310 313 314 314 316 320 322 323 324 325 326 327 328 330 331 331 330 332 332 334 335 336 337 336 339 338 338 339 340 340 341 341 341 341 344 341 341 341 340 340 340 340 339 340 339 338 336 334 331 331 331 329 326 323 322 320 320 319 317 317 317 318 319 318 316 315 314 312 311 310 310 309
303 302 304 303 304 304 304 304 302 303 303 304 305 306 303 304 301 306 304 307 309 308 310 309 308 308 312 314 314 315 318 320 322 325 326 326 328 329 330 330 331 332 331 332 332 333 334 334 335 337 336 337 337 338 337 337 338 339 340 340 342 338 340 339 338 339 340 339 339 338 335 337 334 332 331 331 330 330 329 326 322 320 319 319 320 320 319 318 316 315 314 313 311 310 308 308 307
301 302 304 303 304 304 304 303 303 302 303 304 304 303 304 305 304 303 304 307 309 309 308 307 308 308 308 314 314 314 317 320 322 324 326 328 329 330 332 332 332 331 331 331 332 333 333 332 334 335 336 335 336 336 335 337 337 337 339 339 340 337 340 340 340 339 338 338 338 338 338 337 335 333 332 332 332 330 330 326 321 320 321 320 320 319 318 316 315 314 313 312 311 309 307 306 305
305 304 304 304 304 304 303 303 303 302 304 304 302 303 305 304 304 302 305 307 309 310 307 308 308 307 307 309 313 313 315 319 322 322 324 327 328 328 329 331 332 330 330 330 331 333 334 332 331 333 335 334 335 335 334 334 335 336 336 338 339 339 340 340 340 339 339 338 337 337 337 336 335 334 333 332 331 330 330 326 321 321 321 320 320 318 317 315 314 313 312 311 309 308 306 305 304
305 304 305 304 303 304 303 304 304 303 304 303 302 303 304 303 303 301 307 307 306 307 307 307 307 307 308 308 309 313 314 316 319 322 324 326 327 328 328 329 331 332 331 330 331 332 331 332 332 332 334 334 335 334 334 333 335 335 336 337 338 338 339 340 339 339 338 338 337 337 337 337 335 336 334 332 331 330 330 326 322 321 321 320 320 318 317 315 314 312 311 309 308 306 304 304 303
305 305 304 303 303 304 304 304 303 304 303 303 304 303 304 303 303 301 307 306 307 306 307 307 307 307 308 308 308 311 313 316 318 321 322 323 325 326 328 328 328 329 330 330 331 332 331 331 331 332 333 333 333 333 334 333 333 335 336 335 336 337 338 339 339 339 337 339 338 338 337 337 336 335 335 334 332 330 329 326 324 323 322 320 319 318 315 314 313 312 311 309 308 305 303 303 302
304 305 300 302 303 303 303 303 304 304 303 303 304 302 301 302 300 305 307 306 306 306 307 307 307 308 308 309 309 309 310 313 318 319 320 323 325 325 325 329 329 328 329 330 331 331 330 330 330 332 332 333 332 333 332 331 332 332 332 335 335 337 336 337 338 338 338 339 338 337 337 336 336 335 335 334 333 331 330 328 326 325 322 320 319 316 315 313 311 310 308 307 306 304 302 302 303
305 304 303 301 301 300 304 305 304 303 304 304 303 294 299 302 304 307 307 306 306 306 306 307 308 308 309 309 309 309 309 310 311 317 321 322 323 324 323 325 328 329 329 329 330 330 331 331 331 332 332 331 332 332 329 328 328 331 332 331 334 334 335 335 336 337 338 338 338 337 337 336 336 336 336 334 332 331 328 327 325 323 322 320 318 316 314 312 310 308 306 306 304 303 301 301 299
301 303 303 299 298 297 303 304 303 301 303 303 304 295 299 304 307 307 306 306 306 305 307 307 308 308 309 309 309 309 309 310 310 311 314 318 320 322 322 323 325 326 327 327 327 329 330 330 330 330 331 331 330 329 329 328 328 328 329 331 331 334 334 334 335 337 338 338 337 336 336 337 336 336 337 334 332 331 327 326 326 326 325 319 317 315 314 311 309 306 305 304 303 302 301 300 299
303 297 295 300 298 300 301 303 303 301 301 304 302 296 299 303 305 305 305 305 305 305 306 307 308 308 308 309 308 309 309 311 311 311 312 312 315 318 321 321 322 323 324 325 327 329 328 328 328 328 328 327 328 327 328 328 328 328 328 324 329 331 331 333 334 336 336 337 336 335 336 336 337 336 336 336 334 332 328 325 325 325 322 318 316 314 312 309 307 306 305 303 301 300 299 299 299
301 298 298 297 298 299 299 300 302 301 302 303 302 297 302 302 305 304 304 305 305 305 307 308 308 308 309 308 308 309 309 310 311 311 311 312 312 314 317 319 320 320 322 323 323 324 325 326 324 325 325 325 326 325 326 326 326 327 327 327 327 330 330 331 332 335 335 335 335 335 336 336 335 336 336 334 333 331 330 327 324 323 321 317 315 312 311 309 306 306 303 302 302 299 299 299 298
297 299 297 302 298 298 297 299 302 303 301 300 302 298 300 303 306 306 304 305 305 305 306 307 308 308 309 310 309 309 309 310 310 311 311 311 312 312 313 314 319 319 320 320 322 323 323 325 324 324 325 324 324 324 323 323 323 323 324 325 326 327 329 330 332 332 332 332 333 333 334 334 333 335 334 333 332 331 329 328 325 323 320 317 315 312 310 308 306 304 300 301 301 299 298 297 297
297 297 296 297 299 299 298 298 299 301 300 299 301 300 300 302 304 306 306 306 306 305 306 307 307 308 308 309 309 310 310 310 311 312 313 311 311 312 312 313 315 318 318 318 320 321 322 323 322 322 323 322 322 322 321 321 321 320 320 322 324 326 327 329 330 329 329 330 331 332 332 332 331 334 333 331 329 327 326 325 325 322 319 316 313 311 309 308 306 303 301 299 300 300 298 298 296
298 300 299 298 297 297 296 298 300 301 299 298 299 297 299 302 303 305 306 307 306 306 307 307 307 307 308 308 309 310 311 311 313 315 316 313 312 312 311 312 313 315 316 317 318 319 320 321 321 320 320 321 320 319 320 320 319 318 318 321 321 322 324 325 328 328 327 327 329 330 331 330 330 331 333 332 329 325 322 321 322 321 319 315 312 309 307 307 304 302 300 298 298 298 298 297 297
299 299 298 297 297 298 300 299 299 300 298 298 299 300 300 301 303 304 306 306 306 306 306 306 307 307 307 308 308 309 310 311 320 318 316 314 313 312 311 311 312 313 314 315 316 318 318 319 319 318 319 319 318 318 319 318 317 318 319 319 317 319 321 324 324 325 325 326 327 328 328 328 329 328 328 330 328 322 321 320 320 318 317 314 312 310 308 307 304 301 299 299 298 296 296 296 296
298 298 298 296 299 295 300 299 299 300 298 298 300 300 300 301 302 304 305 305 304 305 305 306 306 307 308 308 309 310 311 315 321 316 314 313 312 312 311 310 310 311 312 313 314 316 318 318 318 318 318 318 318 318 319 318 318 317 317 317 317 319 320 321 321 322 323 324 325 326 327 328 329 327 325 325 324 323 321 319 319 317 316 314 313 311 309 305 303 300 299 297 298 296 294 295 295
299 297 298 297 297 300 300 299 299 300 298 296 299 298 298 300 302 304 304 304 305 306 307 307 306 307 307 308 309 310 311 313 315 314 314 312 313 311 310 310 310 311 312 312 313 315 316 317 318 318 318 317 318 319 318 317 317 318 318 319 318 318 321 323 323 323 322 321 322 322 323 323 325 326 324 323 322 321 320 319 317 317 316 314 311 310 309 305 301 299 298 297 295 296 295 296 294
298 298 296 295 300 295 293 297 299 298 297 296 298 296 298 301 303 303 305 305 306 307 308 308 309 308 308 308 309 310 311 312 312 313 313 311 312 310 309 309 309 310 311 311 312 313 315 316 317 317 317 318 318 318 317 318 318 318 319 320 320 319 317 314 314 317 319 319 318 318 319 319 322 323 323 322 322 321 320 319 318 317 315 314 312 309 306 303 300 298 298 297 296 293 293 293 295
300 299 298 296 298 298 296 296 297 299 299 298 297 297 297 300 300 302 306 308 307 308 308 308 309 310 311 313 313 313 311 311 312 313 313 311 310 309 309 309 309 309 310 311 312 313 314 315 317 317 317 317 318 318 317 318 318 317 317 314 315 312 312 312 312 312 314 314 317 314 314 315 318 319 321 321 321 320 319 319 317 316 315 313 311 308 305 302 300 300 299 297 296 294 292 293 295
297 301 299 298 298 297 297 298 297 295 295 298 298 291 292 299 301 302 305 305 303 305 305 306 308 309 310 309 310 312 313 313 312 311 312 313 310 310 309 309 309 309 309 311 312 313 314 315 316 317 317 317 317 318 318 317 316 315 311 310 310 311 310 309 309 310 310 312 314 314 311 313 315 316 318 318 320 320 319 318 317 315 314 312 311 309 306 304 300 299 299 298 297 297 295 293 293
294 296 300 300 299 298 297 296 297 290 289 297 298 290 288 296 296 299 301 302 303 306 306 306 307 307 308 310 311 311 312 313 314 313 312 312 312 310 309 309 309 309 309 311 312 313 314 315 316 316 316 316 317 317 317 316 315 314 313 312 311 311 311 311 313 315 314 312 312 310 311 310 311 313 315 316 317 317 319 318 317 316 314 312 309 308 305 302 300 300 300 299 298 298 298 295 295
293 298 299 298 297 297 298 297 297 294 299 300 295 296 289 290 295 300 303 301 301 302 303 305 306 308 308 309 310 311 312 312 313 312 312 311 311 310 309 309 309 309 310 310 311 312 312 314 315 315 315 316 316 317 316 315 314 314 312 312 312 312 314 314 314 315 314 312 311 309 308 307 308 310 311 313 315 315 316 316 316 314 313 312 309 308 306 304 302 301 301 300 299 299 298 297 297
297 298 301 300 298 300 299 298 296 297 293 289 295 298 290 290 296 301 301 299 300 301 302 304 306 308 308 310 311 311 311 311 311 312 311 310 310 310 309 309 310 309 310 309 310 311 312 313 314 314 315 315 315 316 315 315 313 313 313 312 312 314 315 316 316 315 312 311 311 307 305 306 306 306 308 309 310 312 312 315 315 314 313 312 309 309 306 304 302 301 300 299 298 299 299 300 300
297 300 301 300 301 300 300 297 297 295 292 288 293 296 288 289 296 297 301 300 299 301 303 303 305 308 308 308 309 309 308 309 310 309 309 310 310 309 309 309 309 309 310 311 310 311 312 312 313 313 313 314 314 315 314 314 313 312 312 312 312 313 314 316 316 313 313 310 309 306 305 304 304 304 304 305 306 307 308 309 312 313 313 312 309 310 306 304 303 301 300 300 300 300 300 301 302
301 303 301 300 300 299 298 298 295 292 287 289 296 296 293 285 294 296 296 299 301 301 302 304 306 308 308 309 311 312 309 310 311 310 309 309 308 307 306 306 307 308 309 309 310 310 311 311 312 312 312 314 314 314 313 312 312 312 311 312 313 313 314 315 314 312 311 309 309 308 304 303 303 302 302 302 302 302 303 304 308 311 311 312 310 311 309 306 304 302 301 301 302 302 302 303 303
303 300 297 297 295 297 294 293 294 286 284 290 292 294 296 285 292 297 301 301 301 301 302 303 304 307 309 310 308 308 308 309 309 309 309 308 306 305 305 305 305 306 307 307 308 309 310 311 311 311 312 312 313 313 312 311 311 311 311 312 312 313 315 312 311 310 309 308 308 306 304 303 302 301 300 300 299 299 300 300 302 305 307 308 309 310 309 307 305 304 302 301 303 303 303 303 303
300 298 296 289 287 288 285 289 285 285 284 289 290 292 290 289 294 297 301 302 303 304 304 304 305 306 309 310 309 309 310 309 309 310 310 310 310 308 305 305 305 305 305 306 307 308 309 310 310 310 310 311 312 312 311 311 310 310 311 311 312 313 313 311 309 309 311 307 307 305 303 302 301 302 300 300 299 298 298 298 298 300 303 305 306 307 307 306 305 304 303 302 302 302 303 304 303
296 294 292 287 283 283 281 285 288 287 288 289 291 295 287 293 296 300 300 302 303 304 305 306 306 305 306 310 311 309 310 310 310 310 311 311 311 312 310 308 306 306 306 306 306 307 309 309 310 309 310 311 311 312 311 310 310 310 311 311 311 312 312 311 309 308 307 307 307 306 304 302 303 304 301 299 298 298 297 299 300 300 302 303 303 305 304 303 303 303 302 301 301 302 303 303 303
296 300 296 290 288 284 281 284 282 284 286 287 291 286 286 287 292 300 302 304 305 305 304 305 306 307 309 311 312 311 310 310 311 310 310 310 311 311 310 309 308 307 306 306 306 307 308 308 308 308 309 310 311 311 310 309 310 310 310 311 311 311 311 310 309 308 307 306 306 305 305 305 303 304 303 302 300 298 298 297 299 299 299 301 300 302 302 302 302 302 301 300 301 301 301 301 300
299 300 301 293 289 294 285 287 286 286 286 286 285 286 293 294 301 302 303 303 303 303 303 304 304 305 306 306 307 308 308 308 309 310 311 311 311 310 309 308 307 307 306 306 306 307 307 308 308 308 309 310 310 310 309 309 309 309 309 309 309 310 310 309 308 308 307 306 306 306 306 305 304 304 303 302 302 300 297 296 296 297 298 299 298 299 300 301 300 299 297 297 298 298 298 299 298
296 297 291 294 299 296 289 286 288 285 284 283 290 290 293 298 298 300 301 300 301 302 302 302 304 306 307 307 308 308 309 309 309 310 310 311 310 308 307 307 306 306 306 306 306 307 307 308 308 308 308 309 310 310 309 309 308 308 308 308 308 309 309 307 307 308 307 305 306 306 306 306 306 305 303 301 300 297 297 296 296 295 295 296 296 297 297 297 297 297 298 297 298 295 297 297 296
298 290 295 300 302 300 292 284 287 284 281 283 289 286 288 289 286 300 299 299 300 301 301 303 303 305 306 308 310 313 311 311 311 311 312 311 310 308 306 306 306 306 306 306 306 307 308 308 308 308 308 308 309 310 309 308 308 308 308 308 308 308 309 307 308 308 307 305 305 305 305 305 304 303 301 300 299 295 295 294 295 293 293 293 294 294 294 294 294 295 296 296 296 295 296 295 294
298 295 304 293 287 285 291 287 280 280 281 283 287 288 289 291 290 295 297 296 298 300 303 303 303 304 305 306 308 311 310 312 311 310 310 310 309 308 306 305 305 305 305 306 306 307 308 308 308 308 308 308 309 310 309 309 308 308 308 308 307 307 308 307 307 307 306 304 304 304 304 304 303 302 299 295 293 293 293 291 292 292 291 291 292 292 294 294 294 294 294 294 293 294 294 293 293
300 301 297 302 295 290 287 287 287 286 281 282 283 287 285 294 294 296 297 298 299 300 300 301 301 303 304 307 310 310 310 312 313 311 312 313 312 309 307 305 304 304 304 305 306 306 306 307 307 308 308 309 309 309 308 307 308 307 307 307 307 307 307 306 306 305 303 303 304 303 302 301 301 300 297 295 293 292 291 290 290 290 290 291 291 291 292 293 293 294 294 294 293 293 292 291 290
291 292 292 294 292 297 294 295 288 286 283 283 283 282 287 295 299 298 298 300 300 300 301 303 303 305 307 308 309 311 311 311 313 315 313 314 311 308 306 305 305 304 304 304 305 305 306 307 307 307 307 308 308 308 308 307 307 306 306 305 306 306 304 304 303 303 302 302 302 300 300 299 297 296 296 294 292 291 290 290 289 289 289 290 290 290 291 291 292 292 293 292 291 292 291 289 288
294 292 290 293 290 288 285 283 294 289 287 283 283 281 289 296 301 300 299 300 300 304 304 305 306 306 308 311 311 310 311 311 311 312 313 313 309 306 305 304 303 303 302 302 303 304 305 305 306 307 307 308 307 307 307 307 306 306 305 305 305 305 304 302 302 301 301 300 300 299 298 296 295 295 294 292 291 291 290 289 289 289 289 289 289 289 290 290 291 291 291 291 290 290 289 287 287
Wind_Speed
10 8 4 3 3 3 5 4 5 4 6 1 4 4 6 4 2 5 4 5 4 4 3 2 2 2 3 5 8 5 7 7 7 6 4 4 5 10 8 10 11 11 10 8 8 8 8 6 6 6 6 8 10 12 13 12 12 12 12 12 12 12 12 13 14 15 15 15 15 16 16 16 16 16 16 16 15 15 14 14 14 14 14 15 16 16 17 19 19 20 20 20 19 18 17 17 18
8 5 4 2 2 2 4 1 4 2 2 4 4 2 7 6 4 5 6 2 7 4 3 2 2 2 3 5 5 2 6 8 8 8 8 8 9 9 10 10 11 11 10 7 8 7 7 7 3 7 6 9 11 12 12 11 11 11 11 11 12 12 12 12 13 15 15 15 15 16 16 15 16 16 15 15 15 15 15 14 14 14 15 15 16 17 18 18 19 20 20 19 19 18 17 17 18
6 5 2 3 4 5 1 4 5 2 2 3 5 4 5 6 4 4 7 7 6 6 4 2 1 1 5 5 5 3 4 4 8 11 8 11 10 8 9 9 9 10 10 8 7 8 6 7 2 6 7 7 11 12 11 12 11 11 11 11 11 12 12 12 13 15 15 14 15 16 16 16 16 15 15 15 16 15 14 14 14 15 15 15 17 18 18 18 19 19 18 17 17 18 18 18 17
7 2 4 3 4 4 4 3 4 3 2 5 6 5 5 4 5 8 7 7 6 5 3 3 4 2 3 4 6 2 6 6 7 9 9 11 6 10 10 10 9 9 9 7 8 7 6 7 3 6 7 6 11 11 11 11 12 11 11 11 10 10 12 11 13 14 14 14 15 16 16 15 15 15 15 15 15 15 15 14 14 15 15 16 16 16 17 18 18 18 17 17 18 19 19 18 18
5 2 2 4 6 2 4 2 4 3 4 3 6 6 6 3 7 6 7 7 6 3 2 4 2 3 2 5 4 4 6 9 6 6 8 7 9 10 10 9 9 9 9 9 8 8 9 9 4 6 7 7 11 11 11 11 12 12 11 10 10 10 12 11 12 13 14 15 15 16 15 15 15 15 14 14 15 15 14 15 15 14 15 16 16 17 18 17 18 18 18 18 19 19 19 18 17
3 3 3 4 3 3 4 4 4 1 6 6 1 6 6 5 6 8 8 6 5 2 2 4 4 2 3 2 3 2 2 3 8 4 9 7 9 10 10 9 9 9 9 8 8 7 8 8 5 6 8 7 10 11 11 11 12 11 11 10 10 10 11 11 12 12 13 14 15 15 15 14 14 14 14 13 13 14 14 14 14 14 14 17 17 16 17 17 17 17 18 18 19 19 18 17 16
2 3 3 3 2 2 4 3 3 3 6 5 6 6 6 6 8 9 8 6 3 1 2 1 1 3 5 4 3 4 5 5 7 5 3 10 9 8 11 9 9 9 10 8 8 9 10 7 8 10 9 9 11 10 11 11 11 11 11 10 9 10 12 11 11 12 13 14 15 14 14 14 14 14 14 13 13 14 14 14 13 15 14 14 15 15 16 17 17 17 16 18 19 19 17 16 16
1 4 1 5 2 3 2 2 2 4 4 5 3 4 6 7 8 7 8 6 7 4 7 3 4 6 4 1 1 6 6 6 8 10 10 9 9 7 10 10 9 10 10 9 8 8 9 7 9 8 9 10 9 9 11 11 11 11 11 10 9 10 12 11 11 12 13 13 14 13 14 13 14 14 14 13 13 14 14 14 13 15 15 15 15 15 16 16 16 17 17 18 18 18 17 16 15
2 4 1 4 3 1 2 1 4 4 5 3 4 6 4 7 7 6 7 3 4 2 5 6 3 5 6 5 4 7 6 7 7 7 9 11 10 9 8 10 10 9 9 8 7 8 9 5 6 7 9 10 11 11 12 11 11 11 10 10 9 9 11 11 11 12 12 13 13 13 14 13 13 14 14 13 13 13 13 13 13 14 15 15 15 15 15 16 16 16 17 17 17 18 17 16 15
3 3 2 3 3 3 1 2 2 4 4 3 2 6 5 6 6 4 6 5 1 3 4 3 2 4 2 4 6 6 6 8 9 7 8 9 11 10 10 10 10 10 10 9 6 8 8 6 5 4 7 10 10 10 11 11 11 10 10 10 9 9 10 11 11 12 12 12 13 13 13 13 13 13 13 13 13 13 14 13 14 14 15 15 15 15 15 15 16 17 17 17 17 17 17 16 15
4 3 2 4 4 1 3 4 2 5 5 5 3 4 6 6 7 5 3 1 4 2 5 4 5 5 4 3 4 6 10 8 8 9 8 9 10 10 10 10 9 10 10 10 9 8 9 8 6 4 4 8 8 8 10 10 11 10 10 10 10 9 10 11 11 12 12 12 12 13 13 13 13 13 13 14 14 14 14 14 14 14 14 14 14 16 16 16 16 16 17 17 17 17 16 16 15
4 5 3 5 3 3 4 4 2 4 4 5 6 7 4 7 6 6 6 5 5 4 4 8 1 1 4 3 5 6 9 9 7 9 8 8 8 9 9 8 9 10 10 10 10 9 9 7 8 6 3 4 6 7 8 8 9 9 8 9 9 9 10 11 11 12 12 13 12 13 13 13 13 13 13 14 13 14 14 14 15 14 14 15 15 15 15 15 16 16 16 16 17 16 16 16 16
5 1 5 5 3 2 4 5 3 2 3 6 7 7 6 7 8 6 6 4 2 4 5 8 4 3 4 3 6 8 10 10 8 10 9 7 8 8 7 8 8 9 9 9 10 9 11 9 9 9 7 5 5 6 7 7 8 8 8 9 8 8 9 10 11 11 12 13 13 13 12 12 12 13 14 14 14 13 14 14 14 14 14 15 15 15 15 16 16 16 16 16 16 17 17 16 16
4 1 3 4 2 3 3 2 1 3 4 7 6 9 8 7 7 3 2 6 5 4 5 5 2 2 4 4 6 7 8 11 10 10 7 7 9 7 9 6 7 7 9 9 9 9 10 9 9 10 8 8 9 6 6 6 6 7 7 8 8 7 8 9 10 10 11 12 12 11 10 10 11 13 13 13 14 13 13 14 15 15 15 16 16 16 16 16 16 16 16 17 16 17 17 16 16
2 1 3 4 1 2 2 5 2 3 2 9 8 10 8 3 1 2 5 6 4 7 5 1 2 2 3 5 7 6 11 13 11 10 8 8 9 8 9 6 6 5 8 9 9 9 9 9 9 9 10 9 10 8 9 7 6 6 7 9 9 8 8 8 8 9 11 12 12 11 10 11 11 11 12 11 11 11 11 13 15 15 16 16 16 16 17 17 17 17 17 17 17 17 17 16 15
3 3 3 4 5 3 4 5 2 4 2 8 8 9 9 5 3 4 1 4 3 2 1 3 3 2 5 5 8 9 13 12 10 10 9 9 8 9 9 8 7 5 6 7 7 7 7 8 8 8 9 10 9 9 8 9 6 7 7 8 9 9 9 9 10 10 11 12 12 13 12 11 10 10 11 9 9 9 10 11 13 14 15 16 16 16 17 17 17 18 17 17 17 17 16 16 15
2 3 4 5 6 4 4 4 4 4 7 7 9 9 9 7 6 1 2 2 5 4 5 2 4 2 3 5 5 7 10 10 10 11 10 8 8 8 7 6 7 6 3 6 6 6 6 7 8 7 9 10 9 8 8 8 7 7 7 8 10 10 10 10 12 11 11 11 11 12 11 9 9 8 9 9 10 9 9 11 12 14 14 14 15 15 16 16 17 17 17 17 17 17 16 15 14
2 5 5 5 4 4 4 4 4 5 3 8 10 10 9 7 6 5 3 4 7 2 5 5 1 3 3 7 4 6 9 9 10 12 11 10 8 8 9 9 10 10 7 8 7 7 8 7 8 9 7 9 9 7 5 7 6 7 10 8 9 8 9 11 10 8 9 9 10 10 8 8 7 7 8 10 9 10 10 11 12 13 14 13 14 15 16 16 17 17 16 16 15 12 10 8 8
5 5 5 5 4 3 3 2 3 1 3 5 8 9 9 3 10 6 6 7 9 8 8 7 7 7 7 7 7 8 9 9 11 11 13 13 12 12 11 9 11 10 9 9 8 9 9 7 8 9 8 8 8 7 5 6 9 9 9 8 6 9 8 9 9 9 9 9 10 9 7 7 7 7 6 7 8 10 10 11 12 12 13 13 14 15 15 15 16 15 14 13 10 7 6 5 6
2 4 4 6 3 6 5 3 4 6 3 2 7 6 7 3 3 7 7 6 8 9 7 9 9 10 12 10 9 10 9 10 11 12 12 13 12 12 13 12 11 11 10 9 8 8 9 9 10 10 9 8 7 6 6 6 6 7 7 7 8 7 7 6 8 9 8 9 9 7 6 6 8 7 13 14 11 9 8 11 12 13 13 12 13 11 13 14 15 14 11 8 5 5 5 5 5
3 4 5 3 4 2 5 3 5 5 4 1 4 4 8 4 4 6 5 8 8 8 9 8 10 10 12 13 12 11 11 11 11 12 12 13 12 10 11 10 10 10 9 9 8 10 12 10 8 10 9 8 7 6 7 6 7 7 7 8 6 7 7 7 5 7 7 9 8 6 6 6 7 8 8 8 7 8 8 8 8 8 8 8 8 8 7 7 7 6 4 5 6 5 5 5 5
2 2 5 3 2 1 5 3 4 4 3 1 4 6 7 4 2 7 8 8 6 4 9 10 7 2 10 13 13 12 12 13 13 13 14 15 15 13 10 9 9 9 9 10 11 11 11 12 10 9 9 8 8 6 7 6 7 7 7 7 7 6 7 7 6 5 7 7 7 6 6 7 8 7 8 7 7 8 8 7 7 7 7 7 7 7 7 6 5 5 5 5 5 5 6 5 5
5 4 1 4 4 3 3 2 3 2 0 2 4 1 3 5 5 9 11 12 4 5 9 8 7 5 7 9 12 12 12 14 14 15 15 15 15 15 12 10 10 10 9 11 11 10 11 13 12 11 8 8 9 8 7 7 6 6 7 7 7 7 6 6 7 5 6 7 7 7 7 7 7 7 7 7 8 8 7 7 7 7 7 7 7 6 6 6 5 5 6 6 6 6 6 6 6
6 1 4 4 3 4 3 3 2 1 2 2 4 4 5 4 10 3 9 12 12 6 5 6 6 4 6 10 11 12 13 14 15 15 15 15 15 15 13 12 10 9 9 10 10 11 11 14 13 13 11 10 9 9 8 6 6 7 6 5 7 7 8 8 7 7 6 7 8 8 8 7 8 8 7 7 7 7 7 7 7 7 7 6 6 6 6 5 5 5 6 7 7 6 7 6 6
7 3 4 4 2 4 3 3 2 1 2 3 3 4 7 5 5 3 11 13 11 6 6 4 4 4 4 8 10 10 11 12 12 13 11 10 12 12 12 9 10 10 10 11 10 11 12 12 14 14 12 12 11 10 10 8 7 8 7 6 7 6 8 7 7 8 7 7 7 8 8 7 8 8 9 7 6 6 6 6 7 7 7 7 7 7 6 6 5 6 6 6 6 6 6 6 5
2 5 6 5 4 4 3 3 2 1 0 1 4 7 3 1 4 11 16 12 3 5 5 5 5 5 6 8 10 10 11 13 12 12 14 11 10 13 13 11 11 13 12 11 11 10 9 11 14 14 12 12 10 10 9 8 9 9 8 7 7 7 9 8 9 7 9 8 8 7 7 8 8 9 9 8 7 6 6 6 6 6 6 6 7 7 7 6 6 6 6 6 6 6 6 5 5
1 7 5 4 5 4 2 1 3 1 1 2 5 6 4 2 3 7 3 2 5 4 6 7 7 9 10 9 9 11 11 13 13 11 10 10 11 12 14 13 12 12 11 13 12 10 9 12 12 11 11 10 10 9 8 9 8 8 8 6 7 8 8 8 8 9 10 9 9 9 9 10 9 9 9 9 9 7 6 8 7 7 6 6 6 7 8 7 7 6 6 6 6 6 6 5 5
4 7 7 6 5 2 4 3 3 3 3 3 4 7 1 3 3 13 1 2 3 5 8 8 8 9 9 10 10 10 10 10 10 10 13 14 11 12 13 13 15 12 12 12 12 11 11 13 12 12 11 8 10 11 7 8 9 8 7 6 5 8 8 8 8 9 9 9 10 10 10 11 10 10 10 10 9 9 9 8 6 6 6 6 6 7 7 6 6 7 6 6 7 6 7 5 5
6 4 6 6 5 5 7 5 4 4 1 1 1 8 11 9 11 17 7 5 4 4 5 6 8 8 9 9 9 8 9 9 10 11 13 13 11 10 14 13 13 13 10 11 11 11 12 12 11 12 12 13 12 13 11 9 9 10 8 7 6 5 7 9 9 9 9 9 9 11 11 11 10 10 10 11 7 9 10 7 5 4 4 5 5 7 9 7 7 7 7 6 7 6 7 6 5
4 4 3 5 6 7 9 5 3 4 2 2 1 6 7 14 20 11 8 6 5 6 8 9 8 8 8 8 8 9 9 9 11 11 11 11 11 12 13 13 13 11 9 8 12 12 11 8 8 9 12 13 13 13 13 11 10 10 9 9 8 6 5 8 9 9 9 9 8 10 10 11 10 10 9 9 8 6 9 8 7 6 5 7 6 7 7 7 7 7 8 7 7 7 7 7 6
5 4 2 4 5 4 7 5 5 6 4 4 2 7 9 2 4 8 5 5 7 9 9 10 9 9 8 8 8 9 10 11 12 13 12 12 11 10 12 12 13 12 9 10 13 13 13 10 8 9 11 13 12 12 12 10 9 10 11 10 10 9 8 9 9 8 8 9 9 8 9 10 11 11 9 9 9 9 9 8 8 7 6 7 7 7 7 7 7 7 7 8 7 6 7 7 7
3 5 5 5 5 5 5 4 5 7 4 5 5 8 11 14 3 4 4 3 5 8 7 8 8 8 8 8 9 9 9 10 12 13 13 13 12 10 11 13 12 13 12 11 11 11 12 11 10 10 10 12 11 11 10 10 9 8 8 8 9 10 9 8 9 9 8 7 9 8 10 10 10 10 10 8 9 8 8 7 8 6 8 7 8 6 7 8 8 6 6 7 8 7 7 7 6
6 6 3 6 6 4 5 4 2 1 3 6 10 7 5 3 7 4 3 4 6 7 8 6 7 8 9 9 8 8 8 9 10 12 13 12 12 11 10 12 12 13 12 11 12 12 12 13 11 12 12 13 12 10 10 10 9 9 9 9 10 9 9 8 8 6 5 6 7 7 9 8 9 10 7 8 8 9 8 9 8 9 8 8 9 7 7 6 7 6 6 4 4 8 7 8 7
6 6 6 3 7 6 5 5 2 2 4 6 10 9 12 13 7 7 8 8 6 7 9 11 10 9 9 8 9 9 9 9 10 11 13 13 11 14 11 11 12 12 12 12 12 12 13 12 11 12 11 11 11 10 10 9 8 8 8 8 8 9 10 9 7 6 6 6 5 6 6 7 8 11 9 8 8 7 8 9 9 10 10 8 8 8 7 6 7 7 7 5 5 7 8 9 8
5 7 7 5 6 6 4 2 4 3 5 7 8 13 15 15 16 16 9 10 10 12 12 13 13 12 11 11 10 10 9 10 11 9 11 14 12 12 11 11 12 12 10 13 12 12 11 11 10 12 12 12 11 10 10 9 8 8 8 9 9 9 9 9 8 8 5 5 6 6 6 6 7 10 9 9 6 6 6 7 10 11 10 9 9 9 7 7 7 7 8 7 5 4 7 8 8
4 6 6 5 4 7 9 3 3 1 5 7 11 12 13 14 15 14 13 12 11 12 13 12 12 12 12 12 12 11 10 12 9 8 8 10 10 11 10 10 11 11 11 12 13 12 13 12 11 11 12 12 11 10 9 9 8 8 9 9 9 10 9 7 7 7 7 6 6 7 7 7 8 7 9 8 8 7 6 6 8 9 9 9 10 10 9 8 10 9 8 9 9 6 4 7 8
4 3 2 3 4 4 5 5 4 1 3 10 13 15 15 16 16 16 15 14 15 15 14 12 12 12 12 12 13 13 13 13 5 7 9 10 10 10 9 9 10 11 11 12 14 14 14 14 13 14 12 12 11 10 10 10 10 8 8 9 10 10 10 9 10 10 8 7 8 9 8 8 9 9 8 7 10 8 7 7 7 8 8 9 9 11 11 10 8 8 8 5 9 9 6 6 7
4 3 4 5 4 6 2 3 3 3 3 6 6 10 14 16 16 17 16 16 17 16 16 16 16 15 13 14 15 14 13 7 7 7 9 9 9 10 9 8 10 12 12 13 15 15 14 14 14 13 11 13 13 12 10 10 9 9 9 10 11 10 10 10 11 9 9 8 9 8 9 8 8 9 7 7 7 8 9 8 10 9 9 8 8 6 7 8 10 9 9 8 2 8 8 9 8
4 6 4 4 5 4 5 4 2 2 2 9 7 10 15 14 16 17 17 17 15 14 15 15 14 15 14 14 14 13 10 10 9 11 10 10 10 11 9 9 9 11 11 13 13 13 13 14 13 12 11 12 12 12 10 10 9 8 8 8 9 9 9 10 11 11 9 9 9 8 6 5 7 8 8 8 8 7 9 9 10 9 10 10 9 8 8 11 11 13 12 10 8 3 6 7 10
5 5 6 5 3 0 3 4 1 3 3 6 7 12 16 16 16 19 19 17 15 12 13 13 11 14 16 16 13 10 11 10 12 11 10 10 11 10 9 9 10 10 10 11 12 14 12 12 13 13 12 12 12 12 10 10 9 9 9 8 9 8 9 2 1 3 7 9 10 8 7 5 7 7 9 9 7 8 8 10 10 11 9 12 11 10 11 11 11 10 10 9 12 10 6 8 9
7 7 6 6 2 3 4 2 2 3 7 3 8 10 13 12 12 9 8 9 10 9 9 10 11 13 14 10 8 9 12 11 10 9 8 9 11 11 11 10 9 10 11 11 12 13 10 14 13 14 12 12 11 11 12 10 9 9 7 2 3 5 3 4 4 5 6 7 9 6 7 5 5 6 8 9 9 11 11 9 10 11 12 13 11 10 9 11 9 12 13 12 12 12 10 8 8
5 9 10 9 6 5 1 2 6 5 4 3 4 5 7 7 7 8 5 5 9 9 10 11 12 13 11 11 12 10 10 11 11 10 8 8 10 10 10 11 11 10 11 11 11 12 11 11 12 12 10 10 10 12 12 10 9 10 8 8 9 10 9 9 10 11 9 9 11 7 5 6 6 6 7 8 9 9 11 12 10 11 10 9 10 11 11 11 11 12 13 11 10 8 13 11 10
6 1 3 6 8 4 3 4 2 4 4 3 4 2 7 11 15 14 10 10 9 7 10 12 12 11 10 9 8 8 8 8 7 7 8 8 8 9 10 11 11 11 10 9 9 10 11 10 11 12 10 9 9 10 12 10 10 10 12 13 12 11 11 11 5 5 6 5 5 6 6 6 5 6 6 7 7 8 12 13 12 9 11 10 7 7 10 12 12 12 11 10 11 11 10 11 12
5 3 2 1 2 3 4 3 4 7 3 4 4 3 6 10 16 10 1 5 10 12 12 13 13 11 9 8 8 6 5 4 3 4 6 7 8 8 9 9 9 8 7 8 8 9 11 11 10 11 10 9 9 9 12 11 10 10 12 13 11 12 10 8 8 7 5 6 6 6 4 6 6 4 4 5 6 7 8 9 10 10 9 10 10 10 10 10 10 10 13 12 11 10 11 10 11
2 1 1 4 3 3 2 2 3 1 5 6 5 5 4 7 13 16 8 9 12 12 11 11 11 9 7 6 4 2 2 2 3 3 3 5 6 6 6 6 7 7 8 9 8 8 9 10 10 11 11 10 10 12 11 11 10 10 10 10 11 10 10 9 7 6 6 6 7 6 5 6 6 4 2 4 4 5 4 7 10 10 10 10 10 10 11 12 13 13 12 10 11 9 8 8 9
3 3 4 6 5 3 2 2 3 2 4 7 6 9 5 11 9 12 8 6 10 10 9 6 2 2 3 3 3 2 2 2 2 2 2 2 2 3 2 3 6 6 7 8 8 8 9 9 11 12 13 10 10 12 11 11 12 10 10 11 12 11 10 10 7 9 7 7 7 7 5 4 5 5 3 2 4 4 6 4 7 9 10 12 12 12 12 14 13 14 15 14 13 12 9 10 10
8 6 6 4 3 2 2 1 2 3 7 8 9 13 8 9 6 10 9 8 4 3 3 3 5 4 4 3 4 3 2 3 2 3 3 3 3 3 4 4 5 6 6 7 7 8 9 10 11 12 13 10 10 12 13 13 12 11 11 12 13 13 13 12 12 9 8 7 8 10 5 4 4 3 4 4 3 4 4 4 6 8 5 9 11 11 11 11 11 12 12 13 13 14 11 11 8
3 3 3 3 3 2 3 3 2 4 7 3 4 2 3 10 3 7 7 2 1 2 2 4 4 6 5 4 4 3 3 3 3 3 4 5 4 4 4 5 6 7 7 7 7 7 8 9 10 12 12 12 10 11 12 12 11 11 11 12 13 13 12 7 10 9 8 9 7 7 5 4 4 4 4 5 5 4 4 3 3 5 6 7 8 7 9 11 10 10 11 11 11 12 10 9 8
2 5 4 3 2 2 4 4 5 7 8 4 1 2 4 18 12 8 4 7 7 8 6 3 2 2 5 5 6 4 3 3 3 3 4 5 5 6 6 6 7 8 7 9 9 8 9 9 11 12 12 12 11 10 12 12 12 12 12 12 13 11 9 6 5 6 6 6 6 6 7 7 6 8 7 8 6 6 5 5 5 6 7 6 6 7 7 8 9 10 11 12 11 10 9 8 8
8 8 8 6 6 7 8 6 3 2 2 2 2 2 8 14 9 12 15 14 12 12 9 7 8 11 10 5 7 5 5 4 4 3 3 4 4 5 6 7 7 7 8 8 8 8 8 8 10 12 12 12 11 11 12 13 13 13 12 12 12 11 8 7 6 6 6 6 7 8 10 7 8 9 7 8 6 7 6 8 9 9 7 9 9 9 8 8 8 9 10 10 11 9 7 9 8
12 8 10 7 5 5 7 5 7 5 3 3 5 1 6 1 1 0 4 3 5 5 5 6 7 8 5 4 3 6 7 6 5 6 6 6 5 6 5 6 6 6 7 8 8 8 8 9 10 12 12 12 13 12 11 12 11 12 12 11 12 12 11 8 7 5 6 7 6 7 9 9 7 8 7 6 8 9 9 7 9 10 8 8 7 8 7 7 8 8 6 9 8 7 7 8 5
8 7 5 7 11 6 10 2 3 3 1 3 4 7 5 7 5 3 2 1 7 7 7 7 7 5 5 6 8 8 8 8 7 7 6 6 6 5 5 5 6 6 7 7 9 9 9 9 10 11 12 12 13 13 12 12 11 10 12 14 14 12 9 7 6 6 7 8 8 9 9 8 6 6 5 6 8 8 9 9 9 10 9 8 8 8 8 8 8 7 6 6 7 4 6 6 4
7 6 7 9 7 4 2 1 3 1 2 10 4 8 13 10 16 19 17 15 13 11 9 7 8 5 4 6 6 7 6 5 5 6 6 5 5 6 6 6 6 6 7 8 9 9 10 9 10 11 11 11 12 13 12 10 10 11 12 13 14 13 11 9 9 10 9 9 9 8 7 5 6 7 7 7 7 7 8 9 10 8 9 8 8 8 7 7 7 8 8 8 9 5 6 6 5
7 7 9 6 3 5 3 7 2 3 9 8 4 12 16 5 10 6 10 12 12 12 10 7 9 9 7 11 11 4 4 4 5 5 5 5 6 7 6 6 7 7 8 8 9 9 9 9 10 11 11 13 12 12 12 11 11 12 12 13 14 14 12 8 9 11 9 8 9 7 6 5 7 6 6 6 6 7 6 7 7 9 8 7 8 8 7 5 5 6 6 6 7 7 6 5 5
3 1 5 6 5 6 8 3 8 9 9 7 10 16 15 14 17 6 5 7 4 3 3 4 7 9 11 12 10 5 4 4 5 6 6 6 6 6 7 7 7 7 8 8 8 9 9 9 10 11 12 12 12 11 11 10 11 9 9 11 12 13 13 9 8 8 7 7 8 7 8 8 6 7 7 7 7 7 7 7 7 5 7 8 6 7 8 7 6 6 6 6 6 7 7 6 5
0 2 2 1 2 6 8 9 4 6 10 6 12 14 11 11 14 11 12 12 11 11 8 9 10 9 5 4 4 6 6 7 6 7 6 5 5 6 6 6 7 7 7 7 8 8 9 10 10 10 10 10 11 12 11 12 11 10 9 10 11 11 10 10 9 8 7 10 9 7 7 7 7 7 7 7 8 8 8 9 8 9 8 8 8 6 6 7 8 7 7 7 7 8 8 7 6
6 5 9 4 4 3 5 3 8 8 8 10 8 12 9 11 8 12 12 8 5 5 5 5 6 5 1 3 3 4 6 7 5 4 5 5 5 5 5 5 5 5 5 6 7 8 8 8 10 11 11 12 12 12 11 10 9 10 10 11 10 10 9 8 8 7 8 9 8 8 7 6 6 5 6 8 8 9 9 9 9 10 9 9 9 9 8 7 8 8 7 7 8 9 9 7 8
13 14 14 14 11 8 8 10 5 3 6 6 7 12 10 12 2 4 6 4 4 5 3 3 6 6 4 2 4 5 5 6 6 6 3 4 5 5 5 4 4 5 6 7 7 7 9 10 9 10 10 10 11 12 12 11 10 9 10 10 9 7 8 8 10 8 8 7 7 8 7 5 7 5 7 7 8 8 8 10 10 10 10 10 9 9 9 8 9 8 8 6 8 9 9 9 9
Wind_Direction
280 249 254 258 258 265 272 211 247 153 239 67 104 210 104 90 98 148 129 136 169 92 56 111 355 156 330 7 3 17 28 358 23 323 31 109 164 129 127 141 136 138 135 134 130 136 132 96 104 116 122 121 123 117 116 111 111 110 106 103 100 97 97 93 87 84 81 77 76 76 75 74 76 77 79 82 84 88 90 93 96 93 90 92 96 93 84 83 86 85 83 81 77 75 73 72 73
270 290 250 254 271 248 206 152 275 175 181 145 84 60 109 109 190 165 143 142 37 92 120 49 187 23 21 342 327 305 76 44 26 82 93 116 153 129 133 145 147 143 133 147 139 140 135 124 69 137 130 130 123 116 115 113 107 104 101 99 99 102 98 93 90 88 84 79 77 77 77 77 77 79 81 85 87 89 93 97 98 97 96 99 97 93 88 90 87 84 84 83 81 79 77 76 75
293 299 260 220 245 241 304 220 272 34 248 129 108 93 123 148 175 110 60 57 84 90 97 88 26 206 231 248 241 318 82 80 89 104 112 147 144 149 152 145 154 146 138 135 147 135 140 119 98 139 140 143 127 120 118 115 110 104 103 102 105 104 103 98 95 91 87 83 80 80 77 77 79 82 83 84 87 89 90 94 96 99 99 96 95 95 92 86 85 85 84 86 87 85 81 78 77
275 291 284 237 239 208 230 216 281 313 309 51 131 118 151 161 100 77 77 82 88 109 121 141 188 55 297 248 21 272 112 107 94 116 129 166 158 146 159 154 155 152 141 143 144 137 136 120 138 140 148 150 131 124 121 117 112 109 106 106 108 109 108 105 101 96 91 87 83 81 80 82 82 83 85 87 90 92 93 91 89 97 100 99 97 94 91 88 86 87 89 87 85 85 84 79 76
266 245 251 264 283 207 308 3 325 276 4 33 65 125 138 148 111 104 88 93 95 110 173 136 209 116 325 311 323 319 82 98 109 131 135 81 109 144 158 153 171 153 153 149 141 145 116 127 152 152 153 156 135 130 123 120 120 118 115 118 116 115 114 111 104 99 95 91 86 84 85 85 85 85 87 88 91 93 98 97 98 99 100 100 96 93 93 92 90 90 88 87 89 82 78 76 76
258 250 199 262 284 11 250 226 178 250 50 341 65 116 137 118 124 115 113 116 99 108 11 196 327 122 189 206 20 14 107 177 134 101 134 136 124 150 155 164 165 162 155 149 144 135 132 130 157 163 150 139 139 130 125 124 124 121 120 119 119 119 118 116 108 106 102 94 89 88 88 88 88 87 87 90 95 97 96 98 100 102 103 99 103 106 101 99 96 90 85 83 81 82 80 78 77
277 235 173 184 145 236 274 313 31 27 62 356 48 117 133 123 122 129 131 128 149 165 171 242 263 240 225 118 152 68 87 85 152 113 93 111 130 158 159 170 167 163 154 151 146 126 127 128 153 154 145 150 145 136 133 131 128 126 126 126 124 126 120 121 114 108 101 96 93 92 92 91 91 91 92 94 96 96 98 101 101 99 93 94 94 93 98 97 94 91 88 87 87 84 80 80 79
258 278 87 260 134 240 259 20 31 1 72 24 12 84 127 126 138 153 151 196 158 209 173 218 252 279 49 253 237 97 101 49 75 99 118 143 150 182 170 172 171 161 155 154 145 122 121 138 151 149 152 151 145 144 139 136 133 133 131 133 139 134 128 125 118 112 104 98 95 95 94 95 96 96 97 97 98 98 98 101 102 103 99 98 102 101 98 96 93 92 90 88 87 87 85 82 77
214 261 152 261 206 189 242 19 62 73 96 109 128 36 54 138 158 165 164 159 121 208 163 187 201 247 110 147 57 126 113 114 98 85 134 141 156 168 177 176 173 163 157 154 132 131 141 119 153 152 158 156 158 154 146 140 140 139 139 140 143 137 130 126 123 113 106 102 97 95 95 96 98 100 100 100 98 98 100 103 106 104 102 98 99 101 99 98 95 94 95 96 94 88 83 80 76
181 266 208 267 2 217 324 131 228 87 100 109 125 152 151 147 159 213 167 171 152 164 105 86 161 284 155 141 125 176 140 131 127 125 143 154 160 177 182 186 170 165 163 148 134 155 144 127 124 145 162 155 160 156 151 147 146 145 144 146 147 139 132 128 124 118 111 106 100 97 97 98 100 102 103 103 103 103 103 104 104 104 99 100 101 101 96 101 102 99 100 98 94 88 85 79 73
212 174 349 253 217 276 250 107 98 144 135 146 140 145 161 166 169 181 210 137 99 208 118 163 205 227 210 126 74 68 113 132 149 142 152 158 167 174 180 186 173 174 162 159 149 154 152 154 126 132 175 160 159 160 155 154 149 149 150 151 148 141 134 131 128 121 116 110 104 101 99 99 102 103 104 104 105 105 105 106 104 103 102 103 104 105 105 102 100 102 97 96 92 88 83 77 72
230 205 187 257 257 291 39 13 61 109 128 166 162 158 166 173 179 193 190 215 175 209 190 179 44 20 208 173 124 143 138 146 160 136 147 154 171 170 192 182 176 181 165 163 160 159 158 153 160 131 133 156 158 159 162 159 153 154 153 151 146 140 139 135 131 127 122 115 107 100 97 100 101 103 104 104 105 107 107 107 106 103 104 104 102 101 102 101 100 100 101 98 93 85 81 77 73
270 150 217 256 5 270 45 281 96 51 193 193 158 163 161 178 192 200 188 223 181 202 196 184 51 252 232 169 96 131 156 155 144 135 146 167 164 163 202 180 176 181 169 173 167 162 164 167 167 166 148 146 146 164 158 161 160 154 156 142 145 139 137 136 133 133 126 121 111 99 95 96 100 103 105 106 106 106 106 106 106 106 106 106 106 105 104 104 102 102 102 98 90 83 80 77 74
279 219 264 240 71 283 279 1 47 252 218 125 126 140 171 186 203 219 207 208 198 217 49 54 209 325 270 117 149 155 161 151 138 141 144 178 158 174 185 182 171 190 175 177 176 170 170 172 172 170 157 177 170 154 149 160 155 156 149 140 138 136 136 135 136 132 120 111 103 95 96 96 100 102 104 105 105 108 109 110 107 104 102 102 102 102 103 104 105 104 103 98 89 83 80 76 73
280 312 254 286 250 243 145 261 26 236 71 130 132 153 167 199 336 197 231 230 104 61 112 30 341 255 79 252 139 164 146 145 139 136 148 168 166 179 180 170 171 189 190 190 182 176 178 176 177 170 178 179 178 177 175 151 161 141 148 144 139 134 126 126 122 112 112 108 99 95 88 85 81 84 87 87 90 91 96 102 106 106 107 105 105 105 105 106 107 105 104 98 87 84 80 76 71
317 237 239 241 245 247 148 229 203 277 152 132 147 151 175 161 196 215 201 358 61 75 218 175 195 302 350 32 74 77 122 133 132 137 155 158 175 186 175 175 187 177 209 198 186 194 186 182 184 175 187 182 181 177 179 172 145 143 145 142 142 134 128 116 107 109 113 110 108 107 107 103 99 91 91 85 82 92 97 103 106 108 107 106 105 105 104 105 106 106 103 92 86 82 76 71 67
277 273 211 223 249 202 140 231 159 241 91 110 142 162 185 182 162 309 30 267 251 159 195 160 187 181 354 76 91 107 116 120 133 148 159 162 174 177 187 180 194 177 205 188 191 196 187 201 196 190 188 190 182 178 183 173 142 145 139 139 144 136 122 111 108 111 117 120 124 128 136 126 120 117 112 104 95 87 93 101 104 103 103 103 102 102 101 102 103 101 96 95 93 88 81 72 63
245 214 229 225 253 222 140 237 200 39 264 141 170 177 197 174 164 172 163 216 235 162 218 170 168 213 89 115 119 120 126 138 152 162 170 172 178 182 192 193 194 196 194 192 196 201 191 200 209 199 196 192 185 183 178 170 160 183 174 158 161 132 124 125 130 132 141 143 144 155 150 139 140 120 110 114 109 104 90 93 98 102 102 100 100 100 101 101 102 101 101 100 100 101 102 91 78
222 225 232 249 214 67 33 354 49 300 13 138 171 183 206 199 166 154 211 202 201 216 218 200 209 198 147 139 136 157 145 155 167 179 177 180 185 188 192 193 200 193 202 203 199 204 201 188 208 210 197 193 189 189 186 176 182 191 184 170 155 153 145 154 153 147 163 161 167 167 165 156 140 134 127 96 101 88 95 98 99 102 100 97 98 98 100 101 101 100 99 97 96 98 88 90 86
237 265 215 239 58 74 61 33 83 51 11 180 164 177 220 110 191 129 222 226 191 226 217 194 220 205 186 167 154 156 163 167 177 187 189 191 192 193 196 195 197 200 191 202 195 200 203 198 194 213 193 192 191 196 194 189 191 194 193 170 172 172 158 181 167 170 175 177 182 179 175 150 129 98 99 108 113 117 98 91 95 96 95 95 100 98 97 98 101 101 106 122 114 91 91 87 84
104 236 250 33 20 209 80 79 74 64 12 225 167 144 209 166 198 181 208 241 224 236 240 218 207 215 190 166 164 162 170 175 185 195 199 198 200 201 201 200 197 198 194 190 200 199 202 204 194 206 204 190 188 198 207 205 200 197 194 183 183 181 171 177 184 183 183 186 194 191 168 158 131 131 134 145 144 133 131 128 128 126 124 123 127 114 117 125 122 121 129 110 90 88 86 83 83
209 226 38 9 64 223 71 80 60 42 11 265 129 175 211 115 197 223 230 232 230 243 214 213 237 283 147 159 168 170 177 182 189 197 203 202 200 202 201 200 196 199 187 190 196 197 201 204 200 199 195 190 196 195 210 208 216 204 199 193 186 190 188 182 177 195 189 195 197 190 160 163 147 147 156 167 143 146 149 153 147 141 138 135 137 132 139 137 129 118 108 99 86 80 73 66 63
233 144 102 54 26 20 63 92 65 322 253 178 199 194 76 193 231 216 229 236 249 48 37 55 65 77 141 154 157 175 182 189 192 199 202 205 203 203 203 197 190 195 194 201 198 194 194 202 203 203 187 198 200 192 196 214 215 214 209 199 202 191 179 170 176 179 203 198 192 190 177 172 158 162 170 176 158 160 162 163 151 149 150 149 149 141 137 134 120 114 104 98 93 88 80 73 66
280 70 130 84 27 52 40 55 58 184 284 264 15 352 252 223 245 157 232 236 248 79 63 72 78 96 137 158 175 182 188 192 198 202 202 207 205 202 201 199 194 192 196 195 199 204 195 200 200 208 198 200 204 201 191 204 217 224 222 193 215 202 192 191 178 175 186 201 199 194 189 175 171 167 176 185 175 177 169 161 155 156 157 150 145 139 137 124 114 105 104 104 103 95 92 87 81
229 180 138 95 82 78 68 60 109 103 245 340 296 249 246 246 279 11 246 241 241 190 131 117 111 124 170 185 187 193 195 199 204 204 206 213 214 212 206 204 200 192 194 193 198 206 199 200 204 204 204 204 203 206 205 188 204 220 227 218 213 210 206 195 190 177 182 191 200 200 195 186 176 175 181 180 186 188 171 165 160 166 159 150 147 144 133 125 118 117 119 118 113 110 104 97 92
248 98 118 123 107 101 91 112 107 167 51 225 224 241 228 281 334 264 256 247 214 129 172 187 192 196 200 206 200 198 201 202 202 200 205 203 208 209 210 209 205 199 198 195 199 204 191 191 206 204 202 205 206 203 206 206 202 210 221 228 216 188 216 208 189 182 186 172 178 188 204 197 184 180 181 179 182 186 180 160 170 167 164 153 151 142 138 132 130 126 123 121 118 112 105 104 102
121 125 121 126 118 125 143 178 130 155 269 185 248 247 213 120 233 261 220 89 117 187 216 208 208 225 222 218 213 208 206 206 201 201 198 201 204 208 209 209 214 208 194 195 196 192 185 185 194 196 201 207 209 210 207 211 183 204 208 223 229 207 213 217 198 193 200 196 182 183 200 203 187 186 181 184 187 176 186 171 175 166 164 156 157 147 143 141 136 133 136 134 127 118 113 110 109
132 124 120 117 144 151 146 180 145 199 170 205 271 278 284 194 214 245 193 128 138 202 224 213 215 228 228 221 218 213 214 213 205 197 200 198 202 202 204 203 208 208 200 200 201 192 192 190 187 191 196 199 218 211 213 224 223 191 181 196 244 230 209 208 207 204 206 212 199 185 198 204 201 188 187 184 185 170 187 182 168 166 161 156 157 148 137 133 127 127 126 121 119 120 118 118 114
136 177 177 149 157 192 175 187 151 228 140 198 324 284 256 200 231 235 205 157 166 196 222 213 220 226 230 228 217 212 214 212 203 203 208 207 202 198 205 204 201 202 209 205 199 190 196 194 191 191 196 204 209 215 218 221 234 233 212 187 206 231 224 213 217 214 213 210 200 195 198 203 203 197 193 189 186 173 185 172 141 119 149 150 142 139 137 132 129 127 123 131 126 128 122 119 114
158 185 279 161 202 229 163 128 139 230 113 171 240 260 244 219 223 221 146 171 184 241 245 244 243 232 223 214 214 216 214 209 210 209 208 209 206 203 208 206 201 198 196 198 202 200 194 193 194 195 197 205 210 221 229 230 228 227 234 225 208 202 226 223 220 219 209 209 200 200 199 204 205 204 194 180 175 181 179 166 158 158 170 152 145 150 151 144 140 137 138 140 136 135 133 129 126
192 147 254 241 197 205 134 177 139 225 116 181 218 260 269 330 168 138 142 158 212 241 247 249 246 242 237 226 219 219 218 211 213 211 211 209 209 208 208 207 202 199 192 194 197 201 199 195 193 205 205 216 215 215 219 224 223 220 218 224 223 211 220 225 224 220 222 210 201 195 200 204 208 208 196 182 180 183 177 167 163 154 157 144 143 164 158 146 142 144 147 140 142 137 131 126 122
156 173 209 212 236 115 125 126 170 232 139 205 195 260 261 267 116 108 116 172 210 231 244 250 251 247 237 235 235 232 229 217 216 217 210 207 207 208 204 205 200 197 197 193 193 195 196 193 191 197 194 201 202 204 207 210 216 224 230 226 227 221 218 226 228 219 211 212 202 195 199 203 203 209 199 193 180 176 172 167 162 154 152 147 148 156 157 149 147 145 149 148 141 136 131 126 124
201 232 191 193 208 182 156 147 119 69 112 182 215 259 305 245 119 144 147 210 213 239 246 246 252 250 245 239 239 240 239 230 215 213 209 203 205 205 203 202 200 197 196 192 190 189 197 196 188 196 195 199 203 199 201 201 204 212 218 223 224 221 221 217 226 230 192 201 209 206 194 189 203 203 182 188 190 179 177 171 164 163 159 165 158 157 166 148 142 138 142 146 151 135 133 126 123
200 205 244 202 208 213 244 105 155 131 230 222 210 245 253 273 261 157 171 180 192 238 252 263 268 263 257 249 243 238 234 233 229 214 205 200 198 199 200 198 198 192 195 196 193 190 193 193 190 195 198 196 199 198 198 199 203 206 213 222 221 214 221 222 208 220 212 195 195 207 180 172 199 208 186 174 184 176 176 174 170 163 165 169 156 152 164 145 140 143 134 134 143 135 133 135 132
194 188 220 206 229 253 281 198 118 230 176 254 246 238 255 263 271 275 241 191 216 242 256 265 268 267 264 258 253 246 239 232 234 224 199 193 193 193 195 194 195 194 193 195 192 192 191 191 188 189 194 194 196 195 193 197 205 214 220 221 216 211 217 219 210 201 205 199 195 198 180 173 200 198 182 176 161 160 165 170 172 172 170 161 159 152 153 158 144 147 142 130 122 121 132 132 130
262 209 216 239 231 205 230 122 94 313 241 240 242 254 261 259 265 262 262 249 221 245 259 261 261 261 260 256 253 250 242 239 236 229 182 175 183 184 188 188 193 192 191 192 192 190 193 192 188 187 193 192 191 189 187 192 195 202 207 208 213 215 213 209 214 207 197 197 198 190 186 191 193 188 191 170 162 158 156 164 169 168 172 169 165 163 165 164 154 144 139 137 128 107 98 124 127
60 38 322 257 258 252 108 95 75 154 289 256 253 259 262 268 271 273 274 271 266 259 252 251 251 250 249 250 250 248 243 242 216 171 159 173 174 175 177 180 187 191 193 192 193 194 194 192 186 191 188 189 189 189 190 189 189 187 201 206 212 212 210 198 204 210 204 203 198 193 187 192 188 188 178 180 177 160 154 158 159 169 165 170 178 173 168 159 147 141 136 135 134 125 126 138 139
286 292 270 253 211 257 37 102 122 119 255 281 283 275 266 268 270 270 268 264 258 252 252 249 247 246 246 246 247 243 243 239 162 168 176 175 172 170 170 177 184 189 197 196 196 196 195 195 194 192 186 191 196 194 188 189 188 190 190 200 207 206 206 204 205 202 205 205 201 195 194 199 189 186 175 170 171 164 158 157 166 166 167 173 178 168 159 149 146 149 147 128 140 139 145 162 155
236 257 255 261 248 251 121 98 134 168 239 267 288 293 281 272 271 268 261 257 254 248 245 247 250 252 251 249 248 248 243 237 201 212 190 180 168 170 175 181 191 200 195 199 200 195 195 197 199 194 192 192 196 193 186 188 188 189 197 204 201 203 210 214 214 209 200 199 200 192 186 192 191 186 173 167 167 171 159 161 165 166 171 169 166 167 164 163 164 162 164 150 146 145 137 162 169
244 221 238 238 63 308 219 105 80 171 239 303 328 301 287 278 260 253 251 248 254 253 251 253 252 254 252 249 250 251 248 242 237 230 209 176 168 174 178 186 192 192 197 197 197 199 197 199 197 195 193 193 194 193 187 186 183 182 199 218 207 209 206 142 101 141 185 196 198 189 187 188 190 183 178 173 169 175 171 171 166 171 172 175 173 166 169 173 168 163 167 165 149 143 163 178 192
219 243 248 253 235 251 286 33 276 234 241 295 273 276 274 272 268 256 234 229 249 249 243 242 239 240 246 254 258 248 248 245 241 235 227 183 173 183 187 187 180 188 195 197 196 197 198 199 196 195 194 193 193 185 182 178 171 180 177 115 129 97 95 176 189 207 199 197 200 184 189 183 192 176 187 174 175 178 181 178 174 174 178 181 178 168 164 169 168 174 168 163 167 155 166 175 198
222 208 231 254 276 306 296 346 334 282 252 144 314 301 271 285 285 268 252 184 225 229 235 241 238 233 221 226 230 231 234 236 241 242 233 206 186 183 182 180 185 192 197 198 196 198 197 197 197 194 197 194 195 190 180 176 178 181 164 181 194 202 204 196 199 199 190 193 201 187 156 181 191 191 185 179 182 179 181 181 178 174 174 184 183 180 175 171 172 171 177 170 175 176 159 169 184
247 138 353 266 267 289 284 289 298 260 275 78 281 315 292 305 287 277 274 260 254 253 248 257 256 255 247 229 226 228 228 227 217 222 223 217 204 187 182 183 190 195 199 190 191 197 199 198 196 195 197 196 194 190 180 179 182 184 193 203 206 205 206 208 199 193 182 174 172 164 175 178 198 194 186 177 175 180 187 182 176 169 173 172 177 174 179 180 179 181 176 183 178 171 168 172 180
228 66 227 93 196 206 251 261 245 280 348 241 185 255 274 293 286 284 101 261 265 261 254 252 252 245 235 229 225 222 224 233 219 216 216 217 217 205 198 190 189 197 187 181 187 193 198 199 195 196 195 194 189 190 184 186 183 189 198 209 213 217 217 206 192 195 168 164 174 173 167 186 193 205 182 173 174 181 181 172 164 166 168 177 171 177 183 182 181 186 185 183 178 180 180 179 182
62 100 11 96 90 98 134 216 258 323 354 289 178 188 232 232 268 285 269 276 271 263 262 254 252 250 238 219 220 191 178 168 194 196 208 202 206 209 209 197 188 183 178 180 184 188 193 199 197 197 198 194 193 189 187 187 187 193 200 208 216 220 220 219 196 190 162 161 173 164 177 187 189 195 192 170 173 176 185 174 167 170 174 174 177 180 182 182 185 179 181 177 187 190 188 189 183
127 147 99 98 103 101 155 261 268 243 265 262 179 183 244 262 245 274 265 239 269 274 264 264 241 133 158 178 154 153 135 149 173 187 148 138 148 158 174 166 168 176 171 178 180 184 191 195 199 199 201 196 193 189 186 183 189 199 207 208 215 214 210 215 198 196 179 162 179 171 176 172 182 181 173 152 174 189 188 188 180 175 177 178 181 184 181 185 188 188 183 183 183 190 193 201 192
136 155 116 119 124 139 178 223 271 281 249 256 180 187 226 286 218 228 249 259 286 280 224 143 127 144 156 139 149 153 143 139 132 142 146 140 127 142 151 176 171 162 168 179 184 186 189 194 198 202 202 199 195 192 190 188 191 200 210 211 213 214 210 211 210 198 173 165 189 193 170 173 163 163 172 182 165 166 170 184 195 195 183 184 186 188 186 185 188 189 189 190 190 190 193 202 190
175 156 173 182 213 187 230 215 167 240 254 81 6 259 256 253 204 211 224 33 133 230 184 143 128 131 140 146 144 137 156 138 137 146 146 155 158 172 173 188 184 174 171 182 185 187 191 196 197 199 202 202 198 198 194 188 190 200 209 213 216 218 215 191 202 195 177 177 174 181 166 164 170 161 162 184 186 157 143 147 145 204 195 186 190 197 195 193 191 189 188 193 198 198 200 200 184
208 178 195 217 229 165 227 183 216 210 248 124 36 295 285 246 230 257 285 276 260 231 232 254 276 154 150 153 143 162 170 175 179 169 160 171 181 171 184 187 177 182 185 186 186 186 190 195 197 201 204 201 203 195 196 196 195 200 207 213 219 220 221 192 185 193 186 167 170 171 177 191 186 194 198 195 192 170 160 157 172 189 197 189 188 199 204 195 191 193 191 193 201 198 199 193 187
195 196 186 196 233 227 242 224 221 275 78 253 85 115 254 275 294 227 237 229 242 254 259 262 262 265 267 185 159 168 186 201 216 210 209 218 222 206 192 184 183 183 186 185 186 186 189 192 196 201 203 200 202 198 196 198 203 204 204 209 216 217 219 208 190 188 177 173 183 179 190 185 192 199 184 198 171 174 180 195 192 197 199 188 181 198 198 191 186 190 193 194 199 199 200 200 190
199 206 196 209 223 230 243 220 230 232 267 106 234 148 245 229 7 7 235 265 267 288 306 301 288 282 290 287 163 185 200 213 215 224 229 232 224 207 196 190 184 182 180 181 183 187 189 194 197 198 201 200 201 200 197 201 203 207 207 207 214 218 219 207 194 189 173 182 187 183 191 195 188 194 187 188 177 191 194 187 195 200 195 190 184 188 195 192 189 185 194 197 204 200 196 188 171
196 212 228 239 234 239 259 333 338 324 351 210 170 231 259 231 24 229 205 234 266 262 262 252 257 248 246 239 238 234 225 224 226 227 226 217 205 191 185 184 186 182 181 178 186 187 191 195 195 199 199 199 200 202 206 203 207 209 215 219 219 216 216 196 188 186 195 194 200 201 201 193 180 174 172 177 190 187 194 191 190 199 193 187 188 188 188 188 188 187 188 190 198 185 184 182 151
168 163 211 207 27 235 267 116 104 62 293 259 223 263 258 264 264 247 241 235 221 208 216 239 265 273 248 251 243 224 212 206 221 225 230 207 179 185 184 180 180 182 184 187 188 190 191 191 193 197 199 202 203 204 207 202 203 210 217 220 221 219 212 188 190 194 190 189 201 205 201 186 187 192 190 185 175 181 196 199 194 180 184 186 182 188 189 188 185 188 188 185 186 167 172 169 142
113 211 208 59 29 0 228 248 169 212 242 261 215 244 274 295 292 96 208 222 247 255 249 213 232 246 257 271 267 204 167 208 229 233 217 201 187 181 176 179 181 182 185 187 190 189 192 194 194 194 197 201 202 201 204 203 203 211 214 216 220 224 223 201 195 195 191 177 197 196 197 188 192 184 172 177 171 171 184 189 195 183 182 182 185 183 187 188 178 193 194 185 177 163 161 146 139
321 233 3 186 207 212 215 243 240 240 235 260 247 251 258 254 261 259 112 158 194 209 215 214 213 209 228 241 260 295 265 209 200 212 207 197 192 183 178 176 179 184 187 188 187 188 190 196 196 199 200 201 199 200 200 203 206 209 213 214 217 221 224 210 197 193 182 176 178 181 188 192 177 178 162 155 164 166 174 175 180 167 179 184 181 183 181 181 177 183 178 172 154 160 161 156 145
209 335 234 344 330 238 201 202 237 240 255 239 259 250 255 243 252 275 271 269 271 279 281 275 275 268 230 220 238 238 250 227 190 199 198 194 181 174 169 168 175 181 184 189 187 188 195 197 198 203 205 202 202 200 196 202 204 206 208 215 219 223 215 209 197 191 192 200 204 193 182 185 180 159 163 155 162 176 176 178 181 182 184 177 177 178 177 178 180 187 178 175 168 162 160 153 142
188 222 225 182 216 23 345 263 219 220 241 243 265 266 249 254 254 259 267 267 279 293 292 304 307 298 257 154 232 244 244 261 256 197 183 178 156 148 149 157 160 166 179 183 190 195 197 198 202 202 202 202 203 201 197 201 200 208 208 209 216 214 205 201 190 188 189 199 200 194 194 182 149 161 151 167 176 180 181 182 178 183 183 180 179 178 177 177 186 183 181 171 161 165 159 152 141
186 191 208 203 190 203 218 244 210 239 229 243 244 258 277 266 335 310 307 318 317 37 358 324 309 311 312 192 187 210 236 243 255 266 220 143 145 150 149 146 145 164 185 190 193 195 200 203 203 200 203 208 203 201 196 192 198 206 211 214 215 215 203 186 203 202 202 198 197 199 192 160 164 155 169 176 185 181 179 181 183 183 182 183 182 182 177 177 188 180 176 164 165 165 160 150 148